IRNSS-1I (43286 NORAD) Tracking and Keplerian Element Data

This shows tracking and keplerian element data for the satellite.

Feedback or suggestion? Click here.




ElementValue
Catalog43286
NameIRNSS-1I
Epoch Orbit352
Epoch Day78.20535494
Epoch Year2019
RAAN117.1809
Inclination29.0929
Eccentricity0.0020918
Argument of Perigee189.3399
Mean Anonmoly358.9628
Mean Motion1.00275433
Decay Rate9.4E-07
L11 43286U 18035A 19078.20535494 .00000094 00000-0 00000-0 0 9990
L22 43286 29.0929 117.1809 0020918 189.3399 358.9628 1.00275433 3521

Live tracking and technical data element details for IRNSS-1I (NORAD 43286). IRNSS-1I can be tracked NOW for your location showing map with azimuth and elevation plus other details from your city location.

Track the satellite on the map from your city or location and see movement details for azimuth, elevation, latitude, longitude, range, height, and movement on the map or in text.







IsCatalogInMostPopularTable: catalog: 43286, numindb: 336
Update: records affected: 1



GetName: 43286 IRNSS-1I

Hit Count: updated at: Thu, 21 Mar 2019 01:43:01 GMT